[Date Prev][Date Next][Thread Prev][Thread Next] - [Date Index][Thread Index][Author Index]
2 Line ISS Keps 7-24
- Subject: [sarex] 2 Line ISS Keps 7-24
- From: "Dave Larsen PhD" <doc@xxxxxxxxxxx>
- Date: Tue, 24 Jul 2001 02:58:49 -0700
ISS
1 25544U 98067A 01205.13316692 .00007334 00000-0 10000-3 0 2498
2 25544 51.5963 261.7956 0014804 306.6617 158.7180 15.58576341152859
----
Via the sarex mailing list at AMSAT.ORG courtesy of AMSAT-NA.
To unsubscribe, send "unsubscribe sarex" to Majordomo@amsat.org
AMSAT Home